Starlink 31335

operational
NORAD ID: 58969 Int'l Des: 2024-031 Owner: SPXS Country: US Constellation: starlink
LEOCIRCULAR

About Starlink 31335

Description loading...

Live Position

Loading 3D Globe...

Upcoming Passes

Altitude History

Altitude vs Time

uPlot chart will show altitude changes over time

Two-Line Element Set

1 58969U 24031E 26034.54381238 -.00002617 00000-0 -76269-4 0 9998
2 58969 53.1603 92.5782 0001494 103.1522 256.9645 15.30194252111341
Epoch: Feb 3, 2026 • Age: 19 hours

Current Status

Altitude 480.8 km
Velocity 7.63 km/s
Sub-Earth Point 53.24°N, 75.51°W
Launch Date Feb 15, 2024
Age 1.9 years
Type internet

Technical Details

Classification Payload
Mass 730.00 kg
Dry Mass 700.00 kg
Total Mass 730.00 kg
Length 0.30 m
Diameter 4.10 m
Span 29.00 m
Shape Box + pan
Manufacturer SPXS
Bus Type Starlink V2M
Phase Status In Orbit
Owner/State SPXS/US

Large Constellations

Loading constellations...